Wind_Speed
15 15 15 16 12 16 18 15 20 20 12 10 9 8 4 12 19 9 21 20 20 18 18 18 21 20 21 20 20 19 17 18 18 18 16 16 16 16 15 17 17 15 14 14 15 13 10 8 9
13 11 9 14 15 18 18 14 18 10 9 10 8 4 13 16 8 21 23 23 19 17 18 18 20 19 18 18 19 19 17 18 18 18 17 17 17 16 15 15 15 15 14 14 14 12 9 6 6
7 7 8 4 8 15 15 18 14 7 7 5 7 6 8 14 17 24 21 22 21 18 17 18 19 19 18 17 17 17 17 17 17 17 16 16 16 15 13 13 14 14 13 13 12 12 9 7 5
8 8 6 4 10 9 6 17 9 15 10 4 7 9 17 15 24 22 22 20 19 18 18 17 18 18 18 16 16 16 16 15 16 16 16 16 16 14 13 12 12 13 13 11 11 11 9 6 3
5 11 5 7 9 14 5 13 11 11 6 5 4 18 24 18 17 19 21 19 17 18 18 17 17 17 16 16 15 14 15 14 15 15 14 15 14 14 13 12 12 10 11 10 10 9 8 6 4
8 7 9 11 14 12 9 4 14 3 6 5 7 18 24 22 23 21 21 17 16 13 16 15 15 15 15 15 14 14 13 13 13 13 13 13 13 12 13 12 11 9 9 8 9 8 7 6 4
9 8 9 7 10 15 11 15 6 4 7 5 7 14 22 20 26 21 14 16 14 13 12 12 13 14 14 14 13 13 13 11 11 10 11 10 9 9 9 10 9 8 8 7 6 6 5 5 4
18 10 5 3 8 12 12 14 5 6 6 7 3 7 16 21 20 16 17 9 13 12 12 11 12 12 12 12 12 12 12 11 9 9 9 8 8 6 6 6 6 6 5 5 5 5 4 4 4
21 12 2 4 9 14 16 9 5 4 4 7 4 8 16 21 15 14 12 12 10 11 13 13 12 12 12 12 12 11 10 9 8 8 7 7 7 6 5 5 4 4 4 2 3 3 3 4 3
13 20 18 6 11 11 17 9 13 6 9 9 9 16 14 17 12 10 10 10 9 11 14 13 12 12 12 12 12 11 9 8 7 6 4 4 7 6 5 4 2 3 4 3 3 2 2 3 4
6 8 3 11 15 9 13 17 14 7 21 4 5 24 21 17 12 9 7 7 12 13 9 12 12 12 11 11 11 11 9 7 6 5 5 4 7 8 8 5 4 3 3 1 2 0 3 2 1
6 13 10 9 12 5 3 23 18 7 6 2 5 15 22 22 16 11 8 11 15 9 13 11 9 8 10 10 10 9 7 6 7 7 6 5 6 10 7 5 3 5 3 3 4 2 2 2 3
7 6 0 2 3 11 2 7 9 9 11 6 2 15 26 21 18 10 8 9 8 9 9 11 11 8 7 6 6 4 6 8 7 7 8 8 9 9 5 3 4 5 4 7 7 8 5 4 6
13 10 4 7 4 4 6 12 11 11 10 6 2 15 30 26 20 12 12 7 7 6 4 6 8 8 6 4 2 1 9 8 7 7 7 8 7 6 6 7 8 9 10 8 9 9 8 8 7
15 8 7 5 7 7 7 12 17 18 13 6 3 14 27 25 19 15 14 8 6 2 1 3 5 4 4 2 5 5 6 8 6 8 7 6 6 5 6 8 8 10 13 14 13 8 11 7 8
5 4 2 4 7 11 8 16 16 19 17 13 4 12 20 23 19 15 14 11 11 7 2 1 3 3 4 2 4 5 4 4 7 8 7 6 5 5 6 7 11 15 16 12 7 5 9 8 5
4 5 7 8 14 4 2 13 18 22 18 16 7 9 14 19 20 16 16 16 13 10 5 2 2 4 5 6 4 4 4 5 9 7 7 5 5 7 7 8 11 14 15 7 7 8 8 8 5
5 6 12 7 17 15 9 9 14 19 20 17 14 10 14 20 21 21 16 17 14 11 8 4 2 6 7 7 6 5 6 10 13 9 6 7 6 5 6 6 7 10 14 13 10 11 9 8 10
19 20 11 3 14 19 8 4 1 15 20 23 22 13 15 20 19 24 18 13 13 9 6 4 2 6 10 8 7 8 9 8 7 8 6 5 5 7 8 6 4 6 10 11 13 11 12 12 8
15 14 21 7 14 17 9 6 1 10 12 15 19 21 13 19 23 26 23 17 6 4 1 3 2 5 10 11 10 10 10 8 5 5 3 5 5 5 7 7 4 3 5 7 9 11 10 10 9
12 10 2 4 11 11 8 8 5 10 12 22 24 19 17 16 23 27 28 20 10 6 4 1 4 4 10 12 12 11 7 6 6 6 9 7 6 5 5 6 5 4 1 2 3 4 5 5 5
11 13 13 10 5 4 8 5 15 13 14 20 25 27 22 22 21 26 27 23 14 7 7 3 2 2 8 12 12 10 6 4 9 4 6 4 3 3 4 6 6 6 5 2 1 1 2 2 2
14 11 13 12 14 9 1 5 7 15 24 25 24 21 20 26 21 28 26 19 8 6 11 7 4 5 7 10 13 12 9 5 2 7 5 3 1 3 5 6 7 6 4 2 1 2 2 2 3
12 14 10 12 12 2 4 0 10 13 21 25 25 20 15 15 20 22 20 20 13 6 11 14 8 5 5 11 14 13 12 4 4 5 3 3 6 5 4 6 6 6 4 3 3 3 4 5 6
15 7 3 4 3 6 3 9 12 18 21 23 24 24 21 15 15 16 23 18 20 11 6 12 12 6 7 9 13 14 12 6 4 3 1 7 5 5 7 6 5 5 3 2 2 3 4 3 4
10 6 3 5 3 12 15 5 9 6 13 19 20 17 21 25 14 7 7 6 7 11 4 3 5 9 6 6 10 12 13 11 5 4 3 4 5 5 6 8 6 5 3 2 1 2 1 1 3
12 14 6 10 5 4 0 6 10 7 5 16 18 22 22 24 19 11 8 5 2 6 4 3 3 5 6 5 10 11 12 12 7 6 4 1 2 2 4 6 7 8 7 7 6 6 6 7 5
13 7 5 7 1 3 1 4 6 14 12 14 16 16 19 22 21 11 12 8 2 2 2 4 3 4 3 7 9 9 9 9 9 10 7 4 4 4 5 10 6 7 10 10 10 10 10 13 12
10 14 10 12 4 7 2 4 12 11 4 17 21 11 12 23 21 13 13 10 4 2 1 1 3 4 6 8 10 10 10 10 11 10 9 7 7 6 9 10 8 10 11 11 15 17 15 14 15
11 18 21 13 8 5 5 5 22 16 8 23 22 13 8 20 18 13 12 10 8 9 5 1 2 3 5 6 8 7 8 10 10 10 9 10 10 11 14 11 13 16 14 18 23 28 21 17 15
Wind_Direction
58 86 106 70 72 97 92 122 117 127 121 139 99 113 117 144 141 145 142 140 135 134 129 128 124 124 126 129 127 125 127 129 126 120 121 120 118 115 118 121 118 123 116 118 114 118 120 113 110
71 87 96 103 92 99 113 125 119 107 93 117 74 110 155 157 138 149 144 140 134 136 132 130 128 127 127 129 127 129 129 126 122 124 124 123 118 111 115 118 122 119 117 117 117 120 124 126 114
69 39 77 93 129 120 122 147 122 114 97 100 48 85 109 161 146 149 148 135 135 139 134 132 132 133 132 133 131 129 126 127 124 124 122 118 113 112 112 111 117 120 119 116 119 124 133 137 121
1 41 72 87 114 107 96 153 122 111 117 20 88 97 105 117 149 150 139 127 133 139 137 138 135 136 135 135 131 128 127 125 123 120 118 115 116 118 117 116 112 112 114 118 124 127 135 136 121
41 83 94 88 90 97 106 133 146 123 118 88 77 107 110 117 134 143 133 131 138 142 139 141 139 138 137 133 131 128 128 128 126 124 122 119 121 122 119 116 110 112 115 118 118 119 122 123 117
60 70 103 90 99 109 81 84 142 57 56 60 9 104 104 97 118 133 127 132 137 142 141 146 146 141 138 135 137 136 134 131 128 128 128 129 130 130 127 122 118 118 115 117 117 120 126 134 143
28 78 50 116 83 136 99 160 178 59 62 66 41 111 118 110 114 100 121 128 136 139 141 144 145 144 141 142 139 137 134 129 128 128 125 121 128 130 126 125 127 130 133 133 126 131 141 158 175
62 51 53 122 115 108 135 182 184 350 100 98 96 101 139 128 119 108 107 99 130 136 139 144 145 142 141 137 132 132 130 131 127 122 121 127 124 119 119 122 129 134 140 142 144 155 172 200 209
62 59 243 229 145 138 134 139 145 51 57 94 88 101 131 126 121 116 113 121 121 141 140 145 147 141 135 132 133 132 128 127 130 135 139 117 142 136 143 145 151 144 139 154 176 181 188 222 240
68 66 69 102 176 138 148 158 151 146 143 156 116 139 149 143 126 139 112 127 104 134 139 144 142 140 137 136 134 132 127 126 140 121 118 127 142 128 129 126 143 157 150 160 191 203 218 239 247
323 66 278 146 112 108 181 148 175 4 183 273 47 160 163 153 160 148 141 125 115 136 142 141 149 146 144 145 143 136 136 139 130 120 112 142 139 115 105 115 122 119 79 27 224 252 242 187 214
27 33 126 165 145 132 129 148 200 229 188 206 25 165 164 165 178 185 177 150 135 141 136 128 140 151 154 156 152 143 145 137 124 123 110 119 121 127 130 117 97 70 46 325 295 234 316 281 182
53 4 120 30 176 146 119 148 194 162 178 183 353 168 166 175 186 204 168 151 139 142 134 136 147 154 170 173 171 161 159 163 156 132 113 98 117 111 113 72 34 16 312 270 271 228 231 216 172
11 114 14 298 123 100 167 171 201 158 186 190 297 173 166 178 188 196 173 168 199 209 137 134 145 150 162 169 136 180 158 164 172 122 92 79 74 57 14 9 1 329 310 294 263 245 226 219 202
313 275 267 266 149 85 69 143 152 162 190 243 219 175 174 177 168 185 186 210 250 250 326 150 159 156 120 127 140 165 160 132 120 123 107 84 47 20 18 353 342 322 321 316 291 234 211 206 190
309 321 22 225 214 127 61 175 164 180 188 220 208 176 163 174 169 187 201 220 252 273 339 204 199 157 140 149 112 147 160 119 144 125 108 74 39 27 24 351 344 351 337 319 284 220 186 177 158
169 18 327 281 211 144 235 158 192 197 209 206 219 183 172 170 181 184 201 219 251 265 280 284 237 231 182 185 187 176 171 167 139 107 96 85 56 37 24 359 358 9 13 41 134 137 150 151 152
264 321 0 322 230 199 100 73 189 204 215 210 218 168 167 180 188 194 210 218 241 246 266 298 234 242 227 204 186 181 190 161 124 120 99 77 57 28 30 18 9 22 35 62 97 123 117 109 130
301 287 303 284 220 205 196 42 104 211 213 214 213 201 180 195 192 206 217 228 242 235 235 25 228 219 224 220 178 144 158 154 131 112 117 75 38 27 15 30 18 34 55 72 90 99 111 116 128
284 292 344 297 223 192 198 102 49 216 227 226 212 206 200 188 201 209 216 229 281 168 154 266 292 189 206 207 179 162 177 175 123 40 21 102 70 28 6 8 12 26 62 86 103 103 108 119 127
282 359 346 97 196 252 197 210 214 226 211 219 220 213 213 213 202 209 219 231 253 215 176 139 14 206 202 197 185 181 181 193 123 121 126 95 62 29 23 15 13 11 5 88 101 108 115 130 145
308 322 340 0 333 325 233 261 218 221 233 230 224 213 216 212 217 215 223 233 247 232 221 229 36 307 207 203 187 183 198 142 63 107 106 67 40 35 28 27 34 25 18 13 252 164 116 147 188
305 314 330 331 317 313 245 282 264 230 229 226 232 230 218 212 214 216 222 230 240 241 225 242 274 331 210 204 204 195 208 188 134 129 137 92 81 53 48 50 56 58 52 43 73 100 98 91 57
288 292 328 305 300 268 205 219 302 239 239 236 227 227 215 196 212 207 224 229 237 242 225 238 254 304 238 198 206 206 217 212 122 118 135 91 43 37 59 71 61 70 78 89 110 123 104 84 82
283 254 336 319 350 221 284 288 248 232 241 228 221 219 223 211 208 204 213 225 232 238 224 230 242 260 310 214 204 208 221 219 144 138 93 60 68 38 26 39 46 47 55 97 137 131 119 87 66
272 273 234 230 229 276 292 257 352 207 234 227 225 216 220 219 216 214 210 221 209 237 240 196 203 240 261 252 202 199 207 229 216 185 231 108 95 59 32 19 27 23 3 348 309 205 229 223 24
233 253 264 283 318 242 358 59 139 154 155 173 195 211 216 215 219 226 226 232 165 217 178 132 168 190 232 252 217 207 207 217 235 254 252 299 288 9 6 345 5 9 344 333 321 307 285 288 291
228 266 281 294 43 5 359 254 162 161 135 166 189 201 217 214 209 210 215 226 249 110 175 236 244 231 240 260 232 217 223 222 225 245 267 280 304 309 316 305 323 347 342 333 312 290 275 275 282
307 259 268 270 230 163 213 220 162 175 114 188 192 207 201 203 208 209 206 215 245 262 159 157 204 196 219 219 216 217 220 231 232 233 251 254 263 282 299 279 300 317 318 324 306 280 269 262 269
12 1 293 251 235 234 274 238 207 246 168 194 192 201 180 195 205 212 211 219 259 243 239 135 229 157 145 175 202 207 222 229 239 239 238 257 265 263 260 271 290 287 301 288 316 287 268 261 261
Height
3166 3164 3164 3164 3167 3165 3164 3166 3165 3165 3166 3166 3165 3165 3166 3165 3167 3171 3168 3171 3173 3176 3178 3179 3180 3183 3184 3186 3187 3188 3190 3191 3192 3192 3195 3196 3196 3196 3197 3198 3199 3200 3201 3202 3202 3201 3202 3202 3204
3167 3168 3167 3166 3167 3165 3165 3166 3167 3167 3166 3167 3166 3165 3165 3166 3166 3168 3170 3172 3175 3178 3180 3181 3182 3184 3187 3189 3189 3191 3193 3194 3195 3195 3196 3197 3198 3198 3199 3200 3200 3201 3203 3204 3204 3204 3204 3205 3205
3167 3168 3169 3167 3167 3166 3166 3167 3168 3169 3169 3169 3167 3167 3165 3166 3168 3170 3174 3174 3176 3179 3181 3183 3184 3186 3188 3190 3192 3193 3194 3195 3196 3197 3198 3199 3200 3201 3202 3202 3203 3203 3204 3206 3207 3207 3206 3206 3206
3170 3171 3169 3170 3169 3169 3169 3171 3169 3168 3172 3171 3169 3169 3168 3171 3172 3173 3174 3175 3178 3181 3183 3185 3186 3188 3190 3193 3193 3195 3196 3198 3199 3199 3200 3200 3201 3203 3204 3205 3205 3205 3205 3207 3208 3208 3208 3208 3207
3171 3173 3170 3171 3173 3171 3169 3172 3170 3169 3171 3171 3171 3169 3168 3173 3176 3175 3176 3179 3182 3183 3184 3186 3188 3190 3192 3194 3196 3198 3199 3200 3200 3200 3201 3202 3203 3205 3205 3206 3206 3207 3206 3208 3209 3209 3209 3209 3209
3172 3173 3173 3173 3174 3173 3171 3171 3173 3172 3171 3170 3172 3169 3171 3176 3178 3178 3180 3182 3184 3186 3186 3188 3190 3191 3193 3196 3199 3199 3200 3201 3201 3202 3203 3203 3205 3205 3205 3205 3206 3207 3207 3208 3209 3209 3210 3210 3210
3178 3175 3175 3174 3174 3177 3176 3174 3174 3174 3174 3172 3173 3170 3172 3177 3181 3182 3184 3186 3186 3187 3189 3191 3192 3194 3195 3198 3199 3199 3200 3202 3203 3204 3205 3205 3206 3206 3206 3206 3207 3207 3208 3209 3209 3210 3210 3210 3210
3179 3179 3177 3176 3175 3176 3177 3175 3176 3175 3175 3174 3175 3172 3172 3177 3181 3183 3185 3186 3187 3189 3191 3193 3194 3196 3198 3199 3200 3201 3202 3203 3204 3205 3206 3205 3206 3206 3207 3207 3207 3207 3208 3208 3209 3210 3210 3209 3210
3182 3179 3178 3177 3177 3178 3179 3179 3179 3177 3176 3175 3174 3173 3175 3178 3181 3183 3185 3187 3189 3190 3192 3194 3196 3198 3199 3200 3201 3202 3203 3205 3205 3206 3205 3206 3206 3206 3206 3207 3207 3207 3207 3207 3208 3209 3209 3208 3209
3185 3179 3179 3180 3179 3180 3181 3180 3177 3180 3178 3177 3176 3175 3174 3177 3181 3185 3188 3189 3190 3191 3193 3195 3198 3199 3201 3201 3202 3203 3205 3205 3206 3206 3206 3205 3206 3206 3206 3207 3207 3207 3206 3207 3207 3208 3208 3208 3208
3186 3185 3184 3181 3178 3180 3177 3179 3179 3177 3178 3178 3178 3176 3176 3178 3183 3188 3190 3191 3192 3193 3194 3196 3198 3200 3202 3203 3203 3204 3205 3205 3206 3207 3207 3207 3207 3207 3208 3208 3208 3208 3207 3207 3208 3208 3207 3207 3207
3183 3179 3177 3177 3179 3180 3177 3178 3180 3178 3177 3179 3180 3179 3179 3181 3184 3188 3191 3192 3194 3195 3196 3199 3200 3202 3203 3204 3204 3204 3205 3206 3206 3207 3207 3208 3208 3208 3208 3208 3208 3207 3207 3208 3207 3207 3206 3205 3206
3183 3177 3180 3179 3179 3177 3179 3178 3178 3177 3178 3179 3180 3181 3181 3182 3185 3190 3192 3192 3195 3196 3198 3200 3203 3203 3203 3203 3204 3204 3205 3206 3206 3207 3208 3209 3209 3209 3209 3208 3207 3205 3206 3207 3207 3206 3205 3204 3205
3182 3181 3180 3180 3181 3181 3182 3178 3177 3179 3178 3180 3181 3181 3183 3185 3187 3189 3191 3192 3194 3197 3198 3200 3202 3203 3203 3204 3203 3204 3206 3207 3207 3207 3207 3208 3208 3208 3207 3206 3205 3204 3202 3201 3203 3203 3203 3203 3203
3184 3183 3182 3181 3182 3182 3183 3177 3174 3175 3179 3180 3182 3182 3184 3187 3189 3191 3190 3192 3195 3197 3198 3199 3201 3202 3203 3203 3204 3205 3207 3207 3208 3208 3208 3208 3208 3208 3207 3205 3204 3202 3201 3197 3197 3194 3200 3201 3200
3182 3183 3183 3181 3181 3177 3174 3176 3176 3175 3176 3179 3180 3181 3183 3186 3188 3191 3192 3194 3195 3196 3198 3199 3200 3202 3203 3203 3204 3205 3205 3207 3208 3207 3208 3209 3209 3209 3207 3206 3204 3200 3197 3194 3192 3193 3197 3199 3200
3182 3179 3179 3181 3179 3177 3170 3170 3175 3175 3176 3178 3180 3180 3182 3185 3188 3191 3192 3193 3195 3196 3198 3200 3201 3202 3204 3204 3205 3205 3206 3208 3209 3209 3209 3210 3210 3209 3208 3206 3203 3200 3197 3193 3191 3194 3196 3198 3200
3179 3179 3177 3175 3175 3174 3172 3170 3171 3173 3175 3176 3178 3180 3182 3184 3186 3190 3193 3194 3196 3198 3200 3201 3203 3204 3205 3205 3206 3206 3206 3209 3208 3210 3211 3210 3210 3209 3207 3206 3204 3202 3199 3196 3195 3196 3197 3198 3200
3175 3176 3176 3174 3171 3172 3172 3171 3171 3172 3173 3174 3176 3178 3180 3183 3186 3190 3192 3194 3197 3199 3199 3201 3203 3204 3205 3206 3206 3207 3208 3208 3208 3209 3209 3209 3210 3210 3208 3205 3204 3203 3202 3200 3198 3198 3199 3200 3201
3174 3175 3172 3171 3170 3171 3173 3171 3170 3170 3170 3170 3172 3174 3178 3182 3185 3189 3191 3193 3196 3198 3199 3202 3203 3204 3205 3206 3207 3208 3207 3208 3208 3209 3207 3209 3209 3208 3208 3205 3205 3204 3203 3202 3201 3201 3200 3201 3201
3171 3173 3174 3170 3169 3172 3172 3170 3169 3169 3168 3169 3170 3173 3178 3180 3182 3186 3189 3192 3195 3197 3198 3201 3203 3203 3205 3206 3207 3207 3207 3208 3208 3208 3207 3208 3208 3208 3207 3206 3205 3204 3204 3203 3202 3202 3201 3201 3201
3169 3171 3172 3171 3172 3169 3169 3168 3167 3165 3165 3164 3168 3170 3175 3178 3181 3184 3187 3190 3193 3195 3198 3201 3202 3203 3204 3205 3206 3207 3207 3208 3208 3207 3208 3208 3207 3208 3207 3207 3206 3205 3205 3204 3203 3203 3202 3202 3202
3168 3168 3169 3168 3167 3166 3166 3167 3164 3164 3161 3163 3166 3169 3173 3176 3179 3181 3183 3187 3191 3193 3196 3200 3202 3202 3203 3204 3206 3206 3206 3209 3209 3208 3209 3210 3207 3208 3208 3206 3205 3204 3204 3204 3204 3203 3202 3202 3202
3168 3167 3168 3165 3164 3164 3163 3163 3159 3159 3157 3162 3166 3167 3170 3171 3173 3178 3182 3186 3189 3191 3194 3197 3200 3201 3202 3203 3204 3206 3206 3207 3209 3209 3210 3209 3208 3209 3208 3206 3206 3205 3205 3206 3205 3204 3203 3202 3202
3165 3166 3168 3167 3166 3163 3160 3160 3155 3156 3156 3159 3160 3162 3165 3170 3171 3175 3180 3183 3186 3189 3191 3194 3197 3199 3200 3202 3203 3205 3205 3206 3208 3208 3208 3209 3209 3210 3211 3209 3207 3206 3206 3206 3205 3204 3203 3202 3201
3164 3166 3168 3170 3169 3159 3158 3156 3154 3154 3155 3156 3159 3161 3164 3167 3171 3175 3178 3181 3184 3187 3189 3192 3194 3197 3199 3200 3202 3204 3204 3204 3206 3208 3209 3211 3212 3212 3211 3211 3210 3208 3207 3207 3205 3204 3203 3201 3201
3162 3163 3164 3162 3160 3158 3158 3155 3156 3156 3156 3156 3160 3162 3164 3167 3170 3173 3177 3181 3183 3185 3187 3190 3192 3195 3197 3200 3200 3202 3203 3204 3204 3206 3208 3209 3209 3210 3211 3212 3209 3207 3207 3207 3207 3206 3204 3202 3201
3158 3160 3161 3159 3162 3162 3157 3158 3157 3157 3158 3160 3163 3163 3164 3167 3170 3173 3176 3179 3181 3184 3186 3188 3191 3193 3195 3198 3199 3200 3201 3203 3204 3205 3207 3209 3210 3210 3210 3209 3208 3207 3206 3206 3205 3205 3203 3201 3200
3159 3157 3158 3158 3158 3160 3162 3157 3155 3155 3160 3160 3161 3162 3163 3166 3169 3171 3173 3177 3180 3182 3184 3186 3189 3191 3192 3195 3196 3197 3199 3201 3202 3204 3205 3207 3208 3208 3209 3208 3208 3207 3205 3204 3202 3200 3199 3197 3196
3156 3155 3154 3154 3155 3154 3153 3153 3152 3153 3156 3160 3161 3163 3162 3164 3168 3170 3173 3176 3178 3181 3183 3185 3187 3188 3190 3192 3193 3195 3196 3198 3200 3202 3204 3204 3204 3206 3203 3203 3203 3202 3205 3200 3196 3195 3194 3192 3192